GW5884 Weather Reports


Display with metric or nautical units.
time (UTC)temp
F
wind
direction
speed
MPH
gust
MPH
rain 1hr
in
rain 24hr
in
rain mn
in
humidity
%
barometer
mb
20260507064041 49 213 1.0 6.0 0.00 0.12 0.00 98 1008.3
20260507063541 49 191 2.0 6.0 0.00 0.12 0.00 98 1008.4
20260507063039 49 203 2.0 6.0 0.00 0.12 0.00 98 1008.1
20260507062539 49 234 0.0 6.0 0.00 0.12 0.00 98 1008.0
20260507062038 50 234 1.0 6.0 0.00 0.12 0.00 98 1008.1
20260507061538 50 205 2.0 6.0 0.00 0.12 0.00 98 1008.3
20260507061037 50 235 1.0 7.0 0.00 0.12 0.00 98 1008.2
20260507060535 50 235 3.0 9.0 0.00 0.12 0.00 98 1008.3
20260507060039 50 216 3.0 9.0 0.00 0.12 0.00 98 1008.5
20260507055534 50 265 2.0 8.0 0.00 0.12 0.00 98 1008.6
20260507055032 50 198 2.0 8.0 0.00 0.12 0.00 99 1008.5
20260507054532 50 190 0.0 6.0 0.00 0.12 0.00 99 1008.5
20260507054034 51 190 1.0 6.0 0.00 0.12 0.00 99 1008.6
20260507053530 51 210 1.0 9.0 0.00 0.12 0.00 99 1009.0
20260507053030 51 213 2.0 9.0 0.00 0.12 0.00 99 1008.8
20260507052528 51 174 1.0 5.0 0.00 0.12 0.00 99 1008.6
20260507052027 51 180 1.0 7.0 0.00 0.12 0.00 99 1008.7
20260507051527 51 198 1.0 3.0 0.00 0.12 0.00 99 1008.8
20260507051026 52 185 0.0 7.0 0.00 0.12 0.00 99 1008.9
20260507050525 52 238 2.0 7.0 0.00 0.12 0.00 99 1009.0
20260507050034 52 224 1.0 4.0 0.00 0.12 0.00 99 1009.1
20260507045525 52 210 2.0 7.0 0.00 0.12 0.00 99 1009.1
20260507045025 52 231 0.0 7.0 0.00 0.12 0.00 99 1009.2
20260507044524 52 211 1.0 6.0 0.01 0.12 0.00 99 1009.1
20260507044023 52 190 3.0 7.0 0.01 0.12 0.00 99 1009.1
20260507043524 52 216 1.0 7.0 0.01 0.12 0.00 99 1009.1
20260507043022 52 194 0.0 4.0 0.01 0.12 0.00 99 1008.9
20260507042525 52 201 1.0 6.0 0.01 0.12 0.00 99 1009.1
20260507042020 52 201 1.0 6.0 0.01 0.12 0.00 99 1009.1
20260507041536 52 200 3.0 11.0 0.01 0.12 0.00 99 1009.0
20260507041019 53 189 2.0 11.0 0.01 0.12 0.00 99 1008.9
20260507040520 53 211 2.0 11.0 0.02 0.12 0.00 99 1009.0
20260507040016 53 203 3.0 11.0 0.02 0.12 0.00 99 1009.0
20260507035515 54 208 3.0 8.0 0.02 0.12 0.12 99 1009.1
20260507035017 54 224 2.0 8.0 0.02 0.12 0.12 99 1009.0
20260507034515 54 189 2.0 8.0 0.01 0.11 0.11 99 1009.1
20260507034013 55 222 1.0 5.0 0.01 0.11 0.11 99 1009.1
20260507033511 55 193 1.0 8.0 0.01 0.11 0.11 99 1009.2
20260507033012 55 205 2.0 11.0 0.01 0.11 0.11 99 1009.2
20260507032510 56 179 5.0 11.0 0.01 0.11 0.11 99 1009.2
20260507032010 56 197 4.0 10.0 0.01 0.11 0.11 100 1009.0
20260507031510 56 164 2.0 5.0 0.01 0.11 0.11 100 1009.1
20260507031010 56 171 1.0 8.0 0.01 0.11 0.11 100 1009.1
20260507030510 56 196 3.0 8.0 0.00 0.10 0.10 100 1008.9
20260507030010 56 72 2.0 5.0 0.00 0.10 0.10 99 1008.6
20260507025515 56 80 1.0 5.0 0.00 0.10 0.10 99 1008.9
20260507025009 56 80 2.0 4.0 0.00 0.10 0.10 99 1008.8
20260507024509 56 90 1.0 4.0 0.00 0.10 0.10 99 1008.6
20260507024011 56 95 1.0 6.0 0.00 0.10 0.10 99 1008.7
20260507023508 56 71 3.0 6.0 0.00 0.10 0.10 99 1008.7
20260507023008 56 88 2.0 8.0 0.00 0.10 0.10 99 1008.7
20260507022511 56 84 2.0 8.0 0.00 0.10 0.10 99 1008.6
20260507022011 56 88 3.0 9.0 0.00 0.10 0.10 99 1008.7
20260507021507 56 80 3.0 9.0 0.00 0.10 0.10 99 1008.8
20260507021007 56 112 4.0 10.0 0.00 0.10 0.10 99 1008.9
20260507020507 56 100 1.0 11.0 0.00 0.10 0.10 99 1008.7
20260507020107 56 105 5.0 12.0 0.00 0.10 0.10 99 1008.8
20260507015506 56 84 5.0 12.0 0.00 0.10 0.10 99 1008.9
20260507015006 56 88 2.0 12.0 0.00 0.10 0.10 99 1008.8
20260507014515 56 82 4.0 10.0 0.00 0.10 0.10 99 1008.7
20260507014006 56 80 3.0 12.0 0.00 0.10 0.10 99 1008.6
20260507013506 56 67 4.0 12.0 0.00 0.10 0.10 99 1008.8
20260507013020 56 95 3.0 12.0 0.00 0.10 0.10 99 1008.8
20260507012504 56 89 3.0 8.0 0.00 0.10 0.10 99 1008.6
20260507012008 56 105 3.0 11.0 0.00 0.10 0.10 99 1008.4
20260507011504 56 114 4.0 11.0 0.00 0.10 0.10 99 1008.3
20260507011004 56 49 6.0 11.0 0.00 0.10 0.10 99 1008.4
20260507010504 56 42 5.0 10.0 0.00 0.10 0.10 99 1008.4
20260507010004 56 72 3.0 11.0 0.00 0.10 0.10 99 1008.3
20260507005504 56 71 3.0 11.0 0.00 0.10 0.10 99 1008.3
20260507005004 56 51 5.0 11.0 0.00 0.10 0.10 99 1008.4
20260507004503 56 78 4.0 11.0 0.00 0.10 0.10 99 1008.4
20260507004004 56 76 4.0 11.0 0.00 0.10 0.10 99 1008.4
20260507003503 56 69 3.0 9.0 0.00 0.10 0.10 99 1008.5
20260507003001 56 90 4.0 13.0 0.00 0.10 0.10 99 1008.6
20260507002502 56 105 4.0 13.0 0.00 0.10 0.10 99 1008.6
20260507002004 56 33 4.0 15.0 0.00 0.10 0.10 99 1008.6
20260507001502 56 88 3.0 15.0 0.00 0.10 0.10 99 1008.5
20260507001002 56 65 3.0 11.0 0.00 0.10 0.10 99 1008.6
20260507000501 56 90 4.0 11.0 0.00 0.10 0.10 99 1008.4
20260506235501 56 67 3.0 11.0 0.00 0.10 0.10 99 1008.5
20260506235100 56 118 5.0 15.0 0.00 0.10 0.10 99 1008.4
20260506234559 56 76 6.0 15.0 0.00 0.10 0.10 99 1008.3
20260506234059 56 100 4.0 15.0 0.00 0.10 0.10 99 1008.3
20260506233602 56 82 6.0 13.0 0.00 0.10 0.10 99 1008.3
20260506233107 56 46 7.0 12.0 0.00 0.10 0.10 99 1008.3
20260506232558 56 95 4.0 10.0 0.00 0.10 0.10 99 1008.2
20260506232058 56 77 4.0 11.0 0.00 0.10 0.10 99 1008.3
20260506231558 56 65 7.0 11.0 0.00 0.10 0.10 99 1008.1
20260506231058 56 74 4.0 12.0 0.00 0.10 0.10 99 1008.1
20260506230557 56 63 5.0 12.0 0.00 0.10 0.10 99 1008.1
20260506230057 56 86 2.0 9.0 0.00 0.10 0.10 99 1007.9
20260506225559 56 82 3.0 9.0 0.00 0.10 0.10 99 1007.9
20260506225056 56 56 5.0 9.0 0.00 0.10 0.10 99 1008.0
20260506224556 56 95 2.0 8.0 0.00 0.10 0.10 99 1007.8
20260506224055 56 78 2.0 12.0 0.00 0.10 0.10 99 1007.9
20260506223555 56 95 3.0 12.0 0.00 0.10 0.10 98 1007.8
20260506223111 56 76 4.0 11.0 0.00 0.10 0.10 98 1007.8
20260506222555 56 95 6.0 11.0 0.00 0.10 0.10 98 1007.8
20260506222059 56 100 2.0 12.0 0.01 0.10 0.10 98 1007.7
20260506221559 56 58 4.0 12.0 0.01 0.10 0.10 98 1007.9
20260506221056 56 85 4.0 12.0 0.01 0.10 0.10 98 1007.8
20260506220553 56 46 4.0 10.0 0.01 0.10 0.10 98 1007.8
20260506220055 56 36 6.0 10.0 0.01 0.10 0.10 98 1007.7
20260506215553 56 120 5.0 17.0 0.02 0.10 0.10 98 1007.6
20260506215053 56 83 4.0 17.0 0.02 0.10 0.10 98 1007.7
20260506214600 56 87 3.0 12.0 0.03 0.10 0.10 98 1007.6
20260506214054 56 50 4.0 12.0 0.04 0.10 0.10 98 1007.7
20260506213551 57 56 4.0 10.0 0.04 0.10 0.10 98 1007.7
20260506213051 57 69 4.0 12.0 0.04 0.10 0.10 98 1007.7
20260506212550 57 52 4.0 13.0 0.04 0.10 0.10 98 1007.7
20260506212054 57 36 6.0 15.0 0.03 0.09 0.09 98 1007.8
20260506211551 57 21 6.0 15.0 0.03 0.09 0.09 98 1007.7
20260506211050 57 73 4.0 12.0 0.03 0.09 0.09 98 1007.9
20260506210550 57 61 7.0 11.0 0.03 0.09 0.09 98 1007.8
20260506210050 57 95 3.0 10.0 0.03 0.09 0.09 98 1007.9
20260506205550 57 49 3.0 16.0 0.02 0.08 0.08 97 1008.0
20260506205049 57 105 4.0 16.0 0.01 0.07 0.07 97 1008.0
20260506204548 57 76 4.0 10.0 0.01 0.07 0.07 97 1008.0
20260506204048 57 74 5.0 14.0 0.00 0.06 0.06 97 1008.0
20260506203548 57 81 4.0 14.0 0.00 0.06 0.06 97 1008.2
20260506203050 57 65 5.0 14.0 0.00 0.06 0.06 97 1008.1
20260506202551 57 59 6.0 13.0 0.00 0.06 0.06 97 1008.1
20260506202048 57 88 3.0 13.0 0.00 0.06 0.06 97 1008.1
20260506201547 57 49 3.0 13.0 0.00 0.06 0.06 97 1008.0
20260506201050 57 67 5.0 13.0 0.00 0.06 0.06 97 1008.0
20260506200546 57 115 6.0 13.0 0.00 0.06 0.06 97 1008.1
20260506200118 57 82 4.0 12.0 0.00 0.06 0.06 97 1008.2
20260506195546 57 76 5.0 12.0 0.01 0.06 0.06 97 1008.1
20260506195048 57 113 4.0 13.0 0.01 0.06 0.06 97 1008.3
20260506194544 57 82 4.0 13.0 0.02 0.06 0.06 97 1008.3
20260506194043 57 55 2.0 19.0 0.02 0.06 0.06 97 1008.3
20260506193546 57 61 4.0 19.0 0.03 0.06 0.06 97 1008.5
20260506193045 57 100 7.0 15.0 0.03 0.06 0.06 97 1008.5
20260506192543 57 95 8.0 15.0 0.04 0.06 0.06 97 1008.6
20260506192042 57 95 6.0 16.0 0.04 0.06 0.06 97 1008.6
20260506191546 57 105 6.0 19.0 0.04 0.06 0.06 97 1008.7
20260506191041 57 126 9.0 19.0 0.05 0.06 0.06 96 1008.7
20260506190541 57 100 3.0 14.0 0.05 0.06 0.06 97 1008.6
20260506190042 57 88 5.0 16.0 0.05 0.06 0.06 96 1008.5
20260506185546 57 57 9.0 16.0 0.04 0.05 0.05 96 1008.6
20260506185044 57 70 5.0 15.0 0.05 0.05 0.05 96 1008.9
20260506184539 57 86 7.0 14.0 0.04 0.04 0.04 96 1009.0
20260506184139 57 64 8.0 18.0 0.04 0.04 0.04 95 1008.8
20260506183538 57 55 8.0 18.0 0.03 0.03 0.03 95 1008.6
20260506183038 57 76 2.0 9.0 0.03 0.03 0.03 95 1008.7
20260506182537 57 67 2.0 10.0 0.02 0.02 0.02 94 1008.8
20260506182037 58 59 4.0 11.0 0.02 0.02 0.02 94 1009.0
20260506181538 58 327 4.0 14.0 0.02 0.02 0.02 93 1009.0
20260506181035 58 45 4.0 14.0 0.01 0.01 0.01 93 1009.0
20260506180535 58 67 5.0 17.0 0.01 0.01 0.01 92 1009.2
20260506180045 58 82 4.0 17.0 0.01 0.01 0.01 92 1009.3
20260506175535 59 63 4.0 16.0 0.01 0.01 0.01 91 1009.7
20260506175033 59 100 7.0 16.0 0.00 0.00 0.00 89 1009.7
20260506174532 60 82 7.0 13.0 0.00 0.00 0.00 88 1009.7
20260506174032 60 100 4.0 13.0 0.00 0.00 0.00 87 1009.7
20260506173533 60 123 7.0 13.0 0.00 0.00 0.00 87 1009.8
20260506173032 61 84 4.0 12.0 0.00 0.00 0.00 86 1009.8
20260506172530 61 95 4.0 15.0 0.00 0.00 0.00 85 1009.8
20260506172034 61 91 7.0 19.0 0.00 0.00 0.00 83 1010.0
20260506171545 62 105 9.0 19.0 0.00 0.00 0.00 82 1010.0
20260506171030 62 46 4.0 11.0 0.00 0.00 0.00 83 1010.0
20260506170530 62 82 6.0 18.0 0.00 0.00 0.00 82 1009.9
20260506170029 62 63 7.0 19.0 0.00 0.00 0.00 82 1010.0
20260506165529 63 100 8.0 16.0 0.00 0.00 0.00 82 1009.9
20260506165032 63 38 10.0 20.0 0.00 0.00 0.00 81 1010.0
20260506164528 63 74 12.0 21.0 0.00 0.00 0.00 81 1010.0
20260506164027 63 51 10.0 21.0 0.00 0.00 0.00 80 1010.1
20260506163527 64 39 4.0 18.0 0.00 0.00 0.00 81 1010.2
20260506163031 63 86 9.0 18.0 0.00 0.00 0.00 81 1010.1
20260506162526 64 13 7.0 17.0 0.00 0.00 0.00 80 1010.1
20260506162027 63 95 5.0 17.0 0.00 0.00 0.00 81 1010.1
20260506161536 63 113 6.0 19.0 0.00 0.00 0.00 80 1010.1
20260506161026 64 57 7.0 19.0 0.00 0.00 0.00 79 1010.4
20260506160529 64 69 6.0 14.0 0.00 0.00 0.00 80 1010.4
20260506160026 64 95 6.0 14.0 0.00 0.00 0.00 79 1010.4
20260506155526 64 61 6.0 17.0 0.00 0.00 0.00 78 1010.6
20260506155026 65 26 6.0 17.0 0.00 0.00 0.00 78 1010.5
20260506154525 65 50 5.0 15.0 0.00 0.00 0.00 78 1010.4
20260506154025 66 55 5.0 15.0 0.00 0.00 0.00 77 1010.4
20260506153526 66 109 7.0 16.0 0.00 0.00 0.00 76 1010.3
20260506153024 66 84 6.0 19.0 0.00 0.00 0.00 77 1010.3
20260506152525 66 76 11.0 23.0 0.00 0.00 0.00 76 1010.3
20260506152024 66 74 11.0 23.0 0.00 0.00 0.00 75 1010.4
20260506151526 66 146 7.0 19.0 0.00 0.00 0.00 77 1010.3
20260506151023 66 95 12.0 19.0 0.00 0.00 0.00 76 1010.2
20260506150524 66 67 7.0 17.0 0.00 0.00 0.00 76 1010.5
20260506150026 66 63 8.0 14.0 0.00 0.00 0.00 75 1010.4
20260506145525 67 75 6.0 15.0 0.00 0.00 0.00 75 1010.6
20260506145022 67 69 7.0 21.0 0.00 0.00 0.00 76 1010.5
20260506144521 67 51 12.0 21.0 0.00 0.00 0.00 75 1010.4
20260506144020 66 13 7.0 19.0 0.00 0.00 0.00 76 1010.4
20260506143520 66 73 9.0 20.0 0.00 0.00 0.00 75 1010.5
20260506143019 66 49 6.0 21.0 0.00 0.00 0.00 76 1010.5
20260506142517 66 48 8.0 25.0 0.00 0.00 0.00 76 1010.7
20260506142017 66 88 9.0 21.0 0.00 0.00 0.00 79 1010.9
20260506141516 66 85 8.0 18.0 0.00 0.00 0.00 79 1010.9
20260506141015 65 112 7.0 16.0 0.00 0.00 0.00 78 1010.8
20260506140514 65 51 8.0 16.0 0.00 0.00 0.00 78 1010.8
20260506140013 65 86 10.0 16.0 0.00 0.00 0.00 79 1010.6
20260506135513 65 71 8.0 16.0 0.00 0.00 0.00 78 1010.7
20260506135020 65 70 6.0 16.0 0.00 0.00 0.00 79 1010.7
20260506134521 64 78 8.0 16.0 0.00 0.00 0.00 79 1010.5
20260506134010 64 95 7.0 14.0 0.00 0.00 0.00 80 1010.6
20260506133511 64 11 7.0 17.0 0.00 0.00 0.00 79 1010.5
20260506133008 64 77 6.0 19.0 0.00 0.00 0.00 81 1010.7
20260506132507 64 71 3.0 19.0 0.00 0.00 0.00 82 1010.6
20260506132007 63 80 7.0 18.0 0.00 0.00 0.00 81 1010.5
20260506131505 63 34 7.0 18.0 0.00 0.00 0.00 82 1010.5
20260506131005 63 59 6.0 18.0 0.00 0.00 0.00 82 1010.8
20260506130504 63 45 8.0 18.0 0.00 0.00 0.00 82 1010.7
20260506130005 63 63 7.0 19.0 0.00 0.00 0.00 83 1010.7
20260506125503 63 82 7.0 15.0 0.00 0.00 0.00 82 1011.0
20260506125101 63 105 8.0 16.0 0.00 0.00 0.00 83 1011.1
20260506124609 63 100 8.0 17.0 0.00 0.00 0.00 84 1011.1
20260506124058 62 95 7.0 17.0 0.00 0.00 0.00 86 1011.2
20260506123557 62 36 7.0 16.0 0.00 0.00 0.00 85 1011.1
20260506123056 61 110 11.0 16.0 0.00 0.00 0.00 87 1011.0
20260506122553 60 51 7.0 15.0 0.00 0.00 0.00 89 1011.1
20260506122053 59 78 7.0 12.0 0.00 0.00 0.00 88 1011.1
20260506121601 59 86 5.0 12.0 0.00 0.00 0.00 89 1011.1
20260506121051 59 75 5.0 12.0 0.00 0.00 0.00 89 1011.1
20260506120551 59 78 6.0 12.0 0.00 0.00 0.00 89 1011.2
20260506120051 59 43 3.0 12.0 0.00 0.00 0.00 89 1011.1
20260506115551 59 62 3.0 12.0 0.00 0.00 0.00 90 1011.1
20260506115049 58 61 4.0 15.0 0.00 0.00 0.00 90 1010.9
20260506114553 58 67 7.0 15.0 0.00 0.00 0.00 90 1011.0
20260506114048 58 51 5.0 16.0 0.00 0.00 0.00 91 1010.9
20260506113548 58 75 5.0 16.0 0.00 0.00 0.00 91 1010.9
20260506113047 58 91 5.0 12.0 0.00 0.00 0.00 91 1011.2
20260506112547 58 70 4.0 12.0 0.00 0.00 0.00 92 1011.2
20260506112045 57 60 8.0 12.0 0.00 0.00 0.00 91 1011.3
20260506111554 57 95 5.0 15.0 0.00 0.00 0.00 92 1011.2
20260506111044 57 49 7.0 15.0 0.00 0.00 0.00 92 1011.2
20260506110546 57 60 6.0 12.0 0.00 0.00 0.00 93 1011.0
20260506110043 57 95 6.0 12.0 0.00 0.00 0.00 93 1011.2
20260506105544 56 73 4.0 14.0 0.00 0.00 0.00 93 1011.2
20260506105042 56 95 3.0 14.0 0.00 0.00 0.00 93 1011.2
20260506104542 56 84 4.0 12.0 0.00 0.00 0.00 93 1011.2
20260506104040 56 52 5.0 12.0 0.00 0.00 0.00 94 1011.2
20260506103540 56 87 5.0 11.0 0.00 0.00 0.00 94 1011.0
20260506103039 56 57 4.0 13.0 0.00 0.00 0.00 94 1011.1
20260506102538 56 86 7.0 14.0 0.00 0.00 0.00 94 1011.1
20260506102039 56 70 6.0 14.0 0.00 0.00 0.00 93 1011.0
20260506101537 56 71 6.0 14.0 0.00 0.00 0.00 93 1011.1
20260506101036 56 51 7.0 12.0 0.00 0.00 0.00 93 1011.0
20260506100536 56 69 3.0 14.0 0.00 0.00 0.00 93 1011.0
20260506100036 56 95 4.0 14.0 0.00 0.00 0.00 93 1011.0
20260506095536 56 82 3.0 10.0 0.00 0.00 0.00 93 1011.0
20260506095037 56 83 3.0 12.0 0.00 0.00 0.00 93 1011.0
20260506094533 56 82 3.0 13.0 0.00 0.00 0.00 92 1010.9
20260506094034 56 40 7.0 12.0 0.00 0.00 0.00 92 1011.0
20260506093531 56 64 6.0 13.0 0.00 0.00 0.00 92 1011.0
20260506093031 56 56 5.0 15.0 0.00 0.00 0.00 92 1011.0
20260506092531 56 74 4.0 15.0 0.00 0.00 0.00 92 1011.0
20260506092030 56 42 6.0 15.0 0.00 0.00 0.00 92 1011.0
20260506091530 56 61 6.0 15.0 0.00 0.00 0.00 92 1011.0
20260506091030 56 95 8.0 15.0 0.00 0.00 0.00 92 1011.1
20260506090528 56 55 7.0 15.0 0.00 0.00 0.00 91 1011.1
20260506090029 56 69 7.0 15.0 0.00 0.00 0.00 91 1011.1
20260506085529 56 64 7.0 14.0 0.00 0.00 0.00 91 1011.2
20260506085028 56 86 5.0 11.0 0.00 0.00 0.00 91 1011.2
20260506084528 56 44 6.0 15.0 0.00 0.00 0.00 91 1011.2
20260506084027 56 63 6.0 17.0 0.00 0.00 0.00 91 1011.1
20260506083527 56 69 7.0 17.0 0.00 0.00 0.00 91 1011.2
20260506083027 56 100 5.0 14.0 0.00 0.00 0.00 90 1011.2
20260506082527 56 65 5.0 13.0 0.00 0.00 0.00 90 1011.1
20260506082025 57 55 7.0 15.0 0.00 0.00 0.00 90 1011.1
20260506081531 57 95 5.0 16.0 0.00 0.00 0.00 90 1011.1
20260506081028 57 63 9.0 16.0 0.00 0.00 0.00 90 1011.3
20260506080525 57 90 8.0 16.0 0.00 0.00 0.00 90 1011.2
20260506073522 57 76 8.0 19.0 0.00 0.00 0.00 89 1011.3
20260506073020 57 105 6.0 16.0 0.00 0.00 0.00 89 1011.3
20260506072524 57 52 7.0 17.0 0.00 0.00 0.00 89 1011.2
20260506072018 57 95 7.0 21.0 0.00 0.00 0.00 89 1011.4
20260506071518 57 85 10.0 21.0 0.00 0.00 0.00 88 1011.3
20260506071017 57 95 6.0 19.0 0.00 0.00 0.00 88 1011.3
20260506070516 57 63 7.0 22.0 0.00 0.00 0.00 88 1011.2